Showing default

ALSAT 1B, 41785

Orbit data source: Space-Track

ALSAT 1B, 41785 is a payload satellite owned by ASAL (DZ) in SSO that was launched on Mon, 26 Sep 2016 UTC via a PSLV launch vehicle from the Sirharikota (SRI). Payload-class satellites include a variety of spacecraft equipped with specific instruments for various scientific and technological missions. These include communications satellites like Starlink; space stations such as the ISS; scientific satellites like the Hubble; Earth observation satellites from companies like Planet Labs, Umbra, and HawkEye 360; GPS; miniature CubeSats for education and research; and military/defense satellites.

Loading next visibility...
Identifier
41785, 2016-059C
Orbit
SSO
Country
Flag of DZDZ / ALG
Related business
Manufacturer
SSTL (Astrium)
Mission
Operational Civil Imaging
Bus & Motor
SSTL-100, Unknown motor
Mass
103 kg wet, 103 kg dry
Launch date (UTC)
2016-09-26 (9 years ago)
Launch vehicle
PSLV
Launch site
Sirharikota (SRI)
Object type
Payload
Rocket body
Debris
Shape & HBR
Box + 1 Ant, 3.3 m
Radar Cross Section
0.862 m², Medium (>0.1 m² and < 1m²)

Expand to show TLE details & history
Last TLE update: 11 hours ago

TLE from 11 hours ago
0 ALSAT 1B
1 41785U 16059C   25258.30080325  .00000505  00000-0  88102-4 0  9992
2 41785  97.7876 273.8750 0010203  37.5794 322.6125 14.71924195480134
Epoch: 2025-09-15T07:13Z
TLE epoch observation values (Epoch: 2025-09-15T07:13:09.4Z)
Latitude
-0.00005°
Longitude
171.07841°
Altitude
652.246 km
Speed
7.535 km/s
True Right ascension
18h 15m 30s
True Declination
0° 00' 00"
Sunlit
Object was in daylight at epoch
Visualization orbit readout
Latitude
Unknown
Longitude
Unknown
Altitude
Unknown
Speed
Unknown
Apparent Right ascension
Unknown
Apparent Declination
Unknown
Sunlit
N/A
Visualization observer readout
Local Sidereal Time
11:10:53
Azimuth
Unknown
Elevation
Unknown
Doppler factor
Unknown
Orbital elements
Apogee altitude
659.152 km
Perigee altitude
644.806 km
Semi-major axis
7,030.116 km
Eccentricity
0.00102
Inclination
97.7876°
RAAN
273.875°
Arg. of periapsis
37.5794°
True anomaly
322.54144°
Mean anomaly
322.6125°
Eccentric anomaly
322.57697°
Mean motion
3.68213 °/min
Orbital period
97.77 mins
BSTAR
0.000088102
Loading maneuver chart data...
Computing Atmospheric mass density...
Loading historical data...
Loading historical data...
Loading historical data...
Loading historical data...
Loading historical data...
Loading historical data...
Loading historical data...

Documentation

Showing up to 5 results
|